Time,TemperatureF,DewpointF,PressureIn,WindDirection,WindDirectionDegrees,WindSpeedMPH,WindSpeedGustMPH,Humidity,HourlyPrecipIn,Conditions,Clouds,dailyrainin,SoftwareType,DateUTC
2013-06-11 00:01:00,56.4,55.0,30.02,SE,128,1.0,-999.0,96,-99.99,,,0.00,weatherlink.com 1.10,2013-06-11 04:01:00,
2013-06-11 00:15:00,56.3,55.0,30.01,ESE,123,4.0,-999.0,96,-99.99,,,0.01,weatherlink.com 1.10,2013-06-11 04:15:00,
2013-06-11 00:45:00,56.2,55.0,29.99,ESE,107,6.0,-999.0,97,-99.99,,,0.03,weatherlink.com 1.10,2013-06-11 04:45:00,
2013-06-11 01:01:00,56.2,55.0,29.98,East,86,3.0,-999.0,97,-99.99,,,0.05,weatherlink.com 1.10,2013-06-11 05:01:00,
2013-06-11 01:15:00,56.2,55.0,29.97,East,99,0.0,-999.0,97,-99.99,,,0.06,weatherlink.com 1.10,2013-06-11 05:15:00,
2013-06-11 01:31:00,56.2,55.0,29.96,ESE,121,2.0,-999.0,97,-99.99,,,0.09,weatherlink.com 1.10,2013-06-11 05:31:00,
2013-06-11 01:45:00,56.1,55.0,29.95,ESE,114,0.0,-999.0,97,-99.99,,,0.10,weatherlink.com 1.10,2013-06-11 05:45:00,
2013-06-11 02:01:00,56.0,55.0,29.94,SE,139,0.0,-999.0,97,-99.99,,,0.11,weatherlink.com 1.10,2013-06-11 06:01:00,
2013-06-11 02:16:00,56.0,55.0,29.93,SE,134,6.0,-999.0,97,-99.99,,,0.11,weatherlink.com 1.10,2013-06-11 06:16:00,
2013-06-11 02:31:00,55.9,55.0,29.93,East,98,5.0,-999.0,97,-99.99,,,0.14,weatherlink.com 1.10,2013-06-11 06:31:00,
2013-06-11 02:46:00,55.8,55.0,29.93,SE,134,1.0,-999.0,97,-99.99,,,0.19,weatherlink.com 1.10,2013-06-11 06:46:00,
2013-06-11 03:01:00,55.8,55.0,29.92,ESE,123,0.0,-999.0,97,-99.99,,,0.25,weatherlink.com 1.10,2013-06-11 07:01:00,
2013-06-11 03:16:00,55.7,55.0,29.90,East,101,0.0,-999.0,97,-99.99,,,0.28,weatherlink.com 1.10,2013-06-11 07:16:00,
2013-06-11 03:31:00,55.7,55.0,29.90,SE,138,0.0,-999.0,97,-99.99,,,0.30,weatherlink.com 1.10,2013-06-11 07:31:00,
2013-06-11 04:01:00,55.3,55.0,29.88,SE,127,2.0,-999.0,97,-99.99,,,0.32,weatherlink.com 1.10,2013-06-11 08:01:00,
2013-06-11 04:16:00,55.1,54.0,29.89,ENE,69,0.0,-999.0,97,-99.99,,,0.33,weatherlink.com 1.10,2013-06-11 08:16:00,
2013-06-11 04:32:00,54.6,54.0,29.87,SE,136,4.0,-999.0,96,-99.99,,,0.36,weatherlink.com 1.10,2013-06-11 08:32:00,
2013-06-11 04:47:00,54.1,53.0,29.87,East,98,1.0,-999.0,96,-99.99,,,0.38,weatherlink.com 1.10,2013-06-11 08:47:00,
2013-06-11 05:02:00,53.7,53.0,29.87,East,86,4.0,-999.0,97,-99.99,,,0.39,weatherlink.com 1.10,2013-06-11 09:02:00,
2013-06-11 05:18:00,53.6,53.0,29.86,East,82,5.0,-999.0,96,-99.99,,,0.39,weatherlink.com 1.10,2013-06-11 09:18:00,
2013-06-11 05:32:00,53.5,53.0,29.87,East,94,0.0,-999.0,97,-99.99,,,0.39,weatherlink.com 1.10,2013-06-11 09:32:00,
2013-06-11 05:47:00,53.4,53.0,29.85,ESE,112,0.0,-999.0,97,-99.99,,,0.43,weatherlink.com 1.10,2013-06-11 09:47:00,
2013-06-11 06:03:00,53.4,53.0,29.84,East,93,0.0,-999.0,97,-99.99,,,0.44,weatherlink.com 1.10,2013-06-11 10:03:00,
2013-06-11 06:18:00,53.5,53.0,29.83,ENE,78,0.0,-999.0,97,-99.99,,,0.46,weatherlink.com 1.10,2013-06-11 10:18:00,
2013-06-11 06:33:00,53.5,53.0,29.83,ENE,78,0.0,-999.0,97,-99.99,,,0.46,weatherlink.com 1.10,2013-06-11 10:33:00,
2013-06-11 06:48:00,53.6,53.0,29.83,ENE,78,0.0,-999.0,97,-99.99,,,0.49,weatherlink.com 1.10,2013-06-11 10:48:00,
2013-06-11 07:03:00,53.6,53.0,29.82,ENE,78,0.0,-999.0,97,-99.99,,,0.49,weatherlink.com 1.10,2013-06-11 11:03:00,
2013-06-11 07:18:00,53.7,53.0,29.81,ENE,78,0.0,-999.0,97,-99.99,,,0.49,weatherlink.com 1.10,2013-06-11 11:18:00,
2013-06-11 07:33:00,53.8,53.0,29.80,NE,34,1.0,-999.0,97,-99.99,,,0.50,weatherlink.com 1.10,2013-06-11 11:33:00,
2013-06-11 07:48:00,53.7,53.0,29.80,NNE,23,1.0,-999.0,97,-99.99,,,0.50,weatherlink.com 1.10,2013-06-11 11:48:00,
2013-06-11 08:03:00,53.9,53.0,29.79,ENE,72,2.0,-999.0,97,-99.99,,,0.50,weatherlink.com 1.10,2013-06-11 12:03:00,
2013-06-11 08:19:00,54.0,53.0,29.78,ENE,62,2.0,-999.0,97,-99.99,,,0.51,weatherlink.com 1.10,2013-06-11 12:19:00,
2013-06-11 08:34:00,54.1,53.0,29.78,NNE,19,0.0,-999.0,97,-99.99,,,0.52,weatherlink.com 1.10,2013-06-11 12:34:00,
2013-06-11 08:49:00,54.2,53.0,29.77,NE,38,1.0,-999.0,97,-99.99,,,0.53,weatherlink.com 1.10,2013-06-11 12:49:00,
2013-06-11 09:04:00,54.5,54.0,29.76,East,92,0.0,-999.0,97,-99.99,,,0.54,weatherlink.com 1.10,2013-06-11 13:04:00,
2013-06-11 09:19:00,54.6,54.0,29.76,ENE,57,0.0,-999.0,97,-99.99,,,0.55,weatherlink.com 1.10,2013-06-11 13:19:00,
2013-06-11 09:34:00,55.0,54.0,29.76,ENE,57,0.0,-999.0,97,-99.99,,,0.57,weatherlink.com 1.10,2013-06-11 13:34:00,
2013-06-11 09:49:00,55.3,55.0,29.75,ENE,63,0.0,-999.0,98,-99.99,,,0.59,weatherlink.com 1.10,2013-06-11 13:49:00,
2013-06-11 10:04:00,56.0,56.0,29.74,ENE,70,0.0,-999.0,98,-99.99,,,0.60,weatherlink.com 1.10,2013-06-11 14:04:00,
2013-06-11 10:19:00,56.2,55.0,29.73,ENE,63,0.0,-999.0,97,-99.99,,,0.60,weatherlink.com 1.10,2013-06-11 14:19:00,
2013-06-11 10:35:00,56.7,56.0,29.73,ENE,63,4.0,-999.0,97,-99.99,,,0.60,weatherlink.com 1.10,2013-06-11 14:35:00,
2013-06-11 10:50:00,56.5,56.0,29.73,North,360,0.0,-999.0,97,-99.99,,,0.60,weatherlink.com 1.10,2013-06-11 14:50:00,
2013-06-11 11:05:00,56.4,55.0,29.73,East,94,3.0,-999.0,96,-99.99,,,0.60,weatherlink.com 1.10,2013-06-11 15:05:00,
2013-06-11 11:20:00,56.4,55.0,29.72,ENE,67,2.0,-999.0,96,-99.99,,,0.60,weatherlink.com 1.10,2013-06-11 15:20:00,
2013-06-11 11:35:00,56.5,55.0,29.72,ENE,63,0.0,-999.0,96,-99.99,,,0.60,weatherlink.com 1.10,2013-06-11 15:35:00,
2013-06-11 11:50:00,56.6,55.0,29.72,ENE,73,0.0,-999.0,94,-99.99,,,0.60,weatherlink.com 1.10,2013-06-11 15:50:00,
2013-06-11 12:05:00,56.9,56.0,29.71,NNE,28,0.0,-999.0,95,-99.99,,,0.60,weatherlink.com 1.10,2013-06-11 16:05:00,
2013-06-11 12:20:00,57.3,56.0,29.71,ENE,60,2.0,-999.0,95,-99.99,,,0.60,weatherlink.com 1.10,2013-06-11 16:20:00,
2013-06-11 12:36:00,57.3,56.0,29.70,NNE,18,0.0,-999.0,95,-99.99,,,0.60,weatherlink.com 1.10,2013-06-11 16:36:00,
2013-06-11 12:51:00,57.3,55.0,29.71,East,98,0.0,-999.0,93,-99.99,,,0.60,weatherlink.com 1.10,2013-06-11 16:51:00,
2013-06-11 13:05:00,57.6,56.0,29.70,NNW,336,2.0,-999.0,94,-99.99,,,0.60,weatherlink.com 1.10,2013-06-11 17:05:00,
2013-06-11 13:20:00,57.5,56.0,29.70,ESE,107,0.0,-999.0,94,-99.99,,,0.60,weatherlink.com 1.10,2013-06-11 17:20:00,
2013-06-11 13:36:00,58.0,56.0,29.69,ENE,76,4.0,-999.0,94,-99.99,,,0.60,weatherlink.com 1.10,2013-06-11 17:36:00,
2013-06-11 13:51:00,58.5,57.0,29.69,NE,46,4.0,-999.0,93,-99.99,,,0.60,weatherlink.com 1.10,2013-06-11 17:51:00,
2013-06-11 14:06:00,58.6,57.0,29.69,North,5,2.0,-999.0,93,-99.99,,,0.60,weatherlink.com 1.10,2013-06-11 18:06:00,
2013-06-11 14:22:00,58.7,56.0,29.68,NE,56,0.0,-999.0,92,-99.99,,,0.60,weatherlink.com 1.10,2013-06-11 18:22:00,
2013-06-11 14:51:00,59.1,57.0,29.66,ENE,76,6.0,-999.0,93,-99.99,,,0.60,weatherlink.com 1.10,2013-06-11 18:51:00,
2013-06-11 15:07:00,59.3,57.0,29.65,East,85,4.0,-999.0,91,-99.99,,,0.60,weatherlink.com 1.10,2013-06-11 19:07:00,
2013-06-11 15:22:00,59.2,57.0,29.65,East,80,0.0,-999.0,91,-99.99,,,0.60,weatherlink.com 1.10,2013-06-11 19:22:00,
2013-06-11 15:37:00,60.2,57.0,29.65,ESE,113,0.0,-999.0,89,-99.99,,,0.60,weatherlink.com 1.10,2013-06-11 19:37:00,
2013-06-11 15:52:00,60.0,57.0,29.65,ESE,119,0.0,-999.0,88,-99.99,,,0.60,weatherlink.com 1.10,2013-06-11 19:52:00,
2013-06-11 16:07:00,60.4,57.0,29.64,East,80,3.0,-999.0,87,-99.99,,,0.60,weatherlink.com 1.10,2013-06-11 20:07:00,
2013-06-11 16:22:00,60.3,57.0,29.63,ESE,113,0.0,-999.0,87,-99.99,,,0.60,weatherlink.com 1.10,2013-06-11 20:22:00,
2013-06-11 16:38:00,60.5,57.0,29.63,ESE,112,0.0,-999.0,87,-99.99,,,0.60,weatherlink.com 1.10,2013-06-11 20:38:00,
2013-06-11 16:52:00,60.4,57.0,29.63,ESE,111,0.0,-999.0,87,-99.99,,,0.60,weatherlink.com 1.10,2013-06-11 20:52:00,
2013-06-11 17:07:00,59.8,56.0,29.62,ESE,111,0.0,-999.0,88,-99.99,,,0.60,weatherlink.com 1.10,2013-06-11 21:07:00,
2013-06-11 17:22:00,59.4,57.0,29.61,ESE,111,0.0,-999.0,91,-99.99,,,0.60,weatherlink.com 1.10,2013-06-11 21:22:00,
2013-06-11 17:38:00,59.1,57.0,29.60,ESE,111,0.0,-999.0,92,-99.99,,,0.61,weatherlink.com 1.10,2013-06-11 21:38:00,
2013-06-11 17:53:00,58.6,57.0,29.59,ESE,111,0.0,-999.0,94,-99.99,,,0.65,weatherlink.com 1.10,2013-06-11 21:53:00,
2013-06-11 18:08:00,58.1,56.0,29.59,ESE,111,0.0,-999.0,94,-99.99,,,0.66,weatherlink.com 1.10,2013-06-11 22:08:00,
2013-06-11 18:24:00,57.8,56.0,29.59,ESE,111,0.0,-999.0,95,-99.99,,,0.68,weatherlink.com 1.10,2013-06-11 22:24:00,
2013-06-11 18:38:00,57.6,56.0,29.59,ESE,111,0.0,-999.0,95,-99.99,,,0.70,weatherlink.com 1.10,2013-06-11 22:38:00,
2013-06-11 18:53:00,57.3,56.0,29.60,ESE,111,0.0,-999.0,95,-99.99,,,0.81,weatherlink.com 1.10,2013-06-11 22:53:00,
2013-06-11 19:08:00,57.0,56.0,29.60,ESE,111,0.0,-999.0,95,-99.99,,,0.87,weatherlink.com 1.10,2013-06-11 23:08:00,
2013-06-11 19:23:00,56.7,56.0,29.59,ESE,111,0.0,-999.0,96,-99.99,,,0.90,weatherlink.com 1.10,2013-06-11 23:23:00,
2013-06-11 19:39:00,56.6,56.0,29.59,ESE,111,0.0,-999.0,96,-99.99,,,0.94,weatherlink.com 1.10,2013-06-11 23:39:00,
2013-06-11 19:54:00,56.5,55.0,29.59,ESE,111,0.0,-999.0,96,-99.99,,,0.97,weatherlink.com 1.10,2013-06-11 23:54:00,
2013-06-11 20:09:00,56.3,55.0,29.59,ESE,111,0.0,-999.0,96,-99.99,,,0.98,weatherlink.com 1.10,2013-06-12 00:09:00,
2013-06-11 20:24:00,56.2,55.0,29.58,ESE,111,0.0,-999.0,97,-99.99,,,0.98,weatherlink.com 1.10,2013-06-12 00:24:00,
2013-06-11 20:39:00,56.0,55.0,29.59,ESE,111,0.0,-999.0,96,-99.99,,,1.00,weatherlink.com 1.10,2013-06-12 00:39:00,
2013-06-11 20:54:00,56.0,55.0,29.59,ESE,111,0.0,-999.0,97,-99.99,,,1.01,weatherlink.com 1.10,2013-06-12 00:54:00,
2013-06-11 21:09:00,55.9,55.0,29.59,ESE,111,0.0,-999.0,97,-99.99,,,1.01,weatherlink.com 1.10,2013-06-12 01:09:00,
2013-06-11 21:25:00,55.7,55.0,29.59,ESE,111,0.0,-999.0,97,-99.99,,,1.01,weatherlink.com 1.10,2013-06-12 01:25:00,
2013-06-11 21:39:00,55.6,55.0,29.59,ESE,111,0.0,-999.0,97,-99.99,,,1.01,weatherlink.com 1.10,2013-06-12 01:39:00,
2013-06-11 21:54:00,55.5,55.0,29.59,ESE,111,0.0,-999.0,97,-99.99,,,1.01,weatherlink.com 1.10,2013-06-12 01:54:00,
2013-06-11 22:09:00,55.2,54.0,29.59,ESE,111,0.0,-999.0,97,-99.99,,,1.01,weatherlink.com 1.10,2013-06-12 02:09:00,
2013-06-11 22:24:00,55.2,54.0,29.59,ESE,111,0.0,-999.0,97,-99.99,,,1.01,weatherlink.com 1.10,2013-06-12 02:24:00,
2013-06-11 22:40:00,55.2,54.0,29.59,ESE,111,0.0,-999.0,97,-99.99,,,1.02,weatherlink.com 1.10,2013-06-12 02:40:00,
2013-06-11 22:55:00,55.2,54.0,29.59,ESE,111,0.0,-999.0,97,-99.99,,,1.02,weatherlink.com 1.10,2013-06-12 02:55:00,
2013-06-11 23:10:00,55.2,54.0,29.58,ESE,111,0.0,-999.0,97,-99.99,,,1.02,weatherlink.com 1.10,2013-06-12 03:10:00,
2013-06-11 23:25:00,55.1,54.0,29.58,ESE,111,0.0,-999.0,97,-99.99,,,1.02,weatherlink.com 1.10,2013-06-12 03:25:00,
2013-06-11 23:40:00,55.0,54.0,29.57,ESE,111,0.0,-999.0,97,-99.99,,,1.02,weatherlink.com 1.10,2013-06-12 03:40:00,
2013-06-11 23:55:00,55.0,54.0,29.58,ESE,111,0.0,-999.0,97,-99.99,,,1.02,weatherlink.com 1.10,2013-06-12 03:55:00,